Wind_Speed
8 8 8 8 9 9 9 9 9 9 9 10 9 9 9 8 8 8 8 8 8 9 9 9 9 9 9 10 10 10 10 11 11 11 12 11 12 14 15 15 15 15 15
8 7 7 8 8 8 7 8 9 9 9 9 9 9 8 8 7 7 7 7 8 8 8 8 8 8 8 8 8 9 9 9 10 11 11 12 13 14 14 15 15 15 15
8 7 6 6 7 7 7 8 8 8 8 8 8 8 8 7 7 6 7 7 7 7 7 7 8 8 8 8 8 8 8 9 9 10 11 12 12 13 14 14 14 14 14
7 7 7 6 7 7 7 7 7 7 7 7 7 7 7 7 6 6 7 8 7 8 8 7 7 8 8 7 7 7 7 8 8 9 10 11 11 12 12 12 12 13 13
6 6 6 7 7 7 7 7 6 6 6 6 7 7 7 7 6 6 7 7 7 7 7 7 7 7 7 7 7 7 7 8 9 9 10 10 10 10 10 11 11 12 12
6 6 6 6 6 7 7 6 6 6 6 6 6 7 7 7 6 6 6 6 6 6 6 6 6 6 7 6 6 7 7 8 8 8 8 9 9 10 10 11 11 11 12
5 6 6 6 6 5 5 5 5 6 6 6 6 6 6 6 5 4 5 5 5 5 5 5 5 5 6 6 6 6 7 7 7 6 7 8 9 9 10 10 10 10 11
5 6 6 6 5 5 4 4 5 5 5 5 5 5 5 5 4 4 4 4 4 5 5 5 5 4 5 5 6 7 7 7 6 7 7 8 8 8 10 11 10 9 9
6 7 6 6 6 5 5 5 5 5 5 5 5 5 4 5 5 5 4 4 4 4 4 4 5 5 5 6 6 6 6 7 7 7 7 8 9 10 11 11 10 9 9
6 7 7 7 7 6 6 6 5 5 5 5 5 5 5 5 5 5 5 4 4 4 4 4 5 5 6 6 6 6 6 6 6 7 8 9 9 10 11 11 11 11 11
7 8 8 8 8 7 7 6 6 6 6 5 5 5 5 5 5 5 5 5 5 4 4 5 5 5 5 5 5 5 6 6 7 8 8 9 9 10 11 12 12 12 11
8 8 8 7 8 7 7 7 7 6 6 6 6 6 5 5 5 5 4 4 5 5 5 5 5 5 6 6 6 6 6 7 8 8 9 9 9 10 11 12 12 12 12
7 8 8 8 8 7 7 7 7 7 6 6 6 6 5 5 5 5 5 5 5 5 5 5 5 5 6 6 7 7 7 7 8 9 9 9 10 11 11 12 13 12 12
8 8 8 8 8 8 7 7 7 6 6 6 6 6 6 6 6 5 5 5 5 5 6 6 6 5 6 6 7 7 7 8 8 9 9 9 10 11 12 13 13 12 12
8 8 8 8 8 8 8 7 7 7 7 7 7 6 6 6 6 5 5 6 6 5 5 5 5 5 6 7 7 8 8 8 9 9 10 10 11 12 12 13 12 12 12
8 7 7 7 8 7 8 7 7 7 7 6 6 7 7 7 6 6 6 6 6 6 6 5 5 6 6 7 8 8 8 8 9 9 9 10 11 12 13 12 12 12 13
8 7 8 8 8 8 8 8 8 7 7 7 7 7 6 6 6 6 6 6 6 6 6 6 6 6 7 7 8 8 8 8 9 9 10 11 12 12 13 13 13 13 14
8 8 8 8 9 8 8 8 8 8 8 7 7 7 6 6 6 6 6 6 6 6 6 6 6 7 8 8 8 9 9 9 10 11 11 11 12 13 14 14 13 14 15
9 9 9 9 9 9 9 9 8 8 8 8 8 7 7 7 6 6 6 6 6 6 6 6 7 8 8 9 9 10 10 11 11 12 12 12 13 14 14 14 14 14 15
9 9 9 9 9 9 10 9 9 9 8 8 8 8 8 8 8 7 7 7 7 7 7 7 8 8 9 9 10 10 11 11 12 12 13 14 14 14 15 15 15 15 15
10 10 10 10 10 10 10 10 9 9 9 9 9 9 9 9 9 8 8 8 8 8 8 8 9 9 10 10 10 11 12 12 13 13 14 14 15 15 15 15 16 16 17
11 11 11 11 11 11 10 10 10 10 10 9 9 9 9 9 9 9 9 9 9 10 10 10 10 11 11 11 12 12 13 13 13 14 15 15 16 16 16 16 17 18 18
12 12 12 12 12 12 11 11 11 10 11 10 10 10 10 10 10 10 10 10 10 10 10 10 11 11 12 12 13 13 13 14 14 15 15 16 17 17 18 18 18 19 19
13 13 13 12 12 12 13 12 11 11 11 11 11 11 11 11 11 11 11 11 11 11 11 11 12 12 12 13 13 14 15 15 16 16 17 17 18 19 19 20 20 21 21
13 13 13 13 13 14 14 14 13 13 13 12 12 12 13 12 12 12 12 12 12 12 12 12 13 13 14 15 15 16 16 17 17 18 18 18 19 20 20 21 22 22 23
14 14 14 15 15 15 15 15 15 15 14 14 14 15 15 14 14 14 14 14 14 14 15 15 15 16 16 17 17 18 18 18 18 18 19 20 21 21 21 21 22 23 24
Wind_Direction
269 268 268 266 263 260 255 252 251 251 255 259 260 258 257 260 264 265 267 269 270 273 275 276 276 274 271 272 276 280 283 285 282 281 281 284 283 284 284 285 284 286 288
265 266 267 265 266 260 256 256 254 250 254 256 257 257 257 260 264 270 274 275 277 278 277 275 284 285 280 277 279 282 287 292 293 292 291 290 288 287 288 289 286 287 288
262 257 260 263 263 258 254 258 258 257 255 254 256 256 254 257 258 270 272 277 281 278 280 282 283 286 286 283 283 287 290 294 297 297 297 296 294 292 292 292 290 290 288
261 255 258 263 263 261 260 260 259 259 257 255 254 249 249 252 256 266 272 277 273 276 277 279 283 286 286 285 286 289 294 298 301 302 301 301 300 299 298 296 294 294 291
259 256 261 262 262 263 264 262 266 260 258 254 252 252 249 251 258 267 273 269 267 273 277 277 283 280 278 287 290 293 297 301 304 305 307 309 310 310 306 304 301 300 296
257 257 259 260 257 260 265 264 262 257 253 251 253 253 252 253 258 267 275 275 279 277 279 279 280 281 282 288 292 295 299 302 313 312 315 318 318 318 314 311 307 306 303
261 258 257 258 256 261 266 266 262 251 250 249 253 253 253 255 264 271 278 285 289 288 293 287 293 292 291 294 299 301 306 308 314 318 323 327 328 328 326 319 314 310 307
259 256 252 249 250 258 264 264 258 251 247 247 252 254 255 254 259 271 276 280 283 291 294 293 295 299 300 303 304 305 304 307 315 319 324 328 331 331 331 329 323 317 313
254 252 252 258 256 252 256 262 253 250 246 248 251 255 257 256 264 266 271 272 273 281 286 294 300 301 301 302 305 306 303 309 313 318 326 330 332 331 330 330 328 321 314
255 258 258 261 260 255 254 257 253 252 251 252 255 255 262 266 269 265 266 271 274 282 287 293 303 309 308 309 307 304 303 311 318 322 326 327 330 331 333 332 329 323 321
262 259 259 260 259 255 255 258 253 253 253 257 260 260 263 262 260 261 264 269 276 282 287 296 301 309 309 312 314 312 310 314 321 325 326 327 330 333 334 333 331 330 327
264 259 258 259 257 255 255 252 248 252 253 258 260 260 261 260 257 253 255 267 278 285 290 298 306 310 309 311 314 314 315 320 326 328 329 330 332 333 335 335 336 334 331
263 257 252 252 255 256 255 251 249 250 251 255 253 252 256 258 254 252 254 263 273 286 291 298 304 306 307 310 312 316 318 320 324 328 330 332 334 335 334 335 336 337 336
261 254 251 250 252 250 250 247 243 249 247 245 245 249 253 255 254 258 259 263 271 281 287 293 296 302 307 314 317 319 323 325 328 331 333 332 334 333 333 335 335 336 335
258 254 254 252 251 247 246 247 242 245 244 243 245 247 250 248 251 256 263 266 271 279 284 289 294 301 309 315 316 315 318 323 328 330 332 332 334 335 333 332 333 332 330
254 253 250 248 244 242 240 242 240 237 240 242 243 249 252 247 246 256 263 266 266 271 279 282 290 302 307 311 315 318 320 323 327 331 332 334 337 338 340 336 334 333 332
255 250 247 246 244 241 239 240 239 236 238 244 246 246 244 240 250 258 263 265 266 270 275 279 288 299 305 309 313 318 323 324 324 329 332 333 333 332 332 331 329 329 329
255 252 248 248 247 241 239 242 242 240 244 247 241 241 242 247 254 258 263 266 267 270 276 281 290 298 302 308 315 321 323 321 321 322 324 325 326 325 326 326 326 324 325
254 251 248 250 248 243 243 241 241 241 241 239 237 242 246 251 254 259 262 264 268 273 279 286 292 297 301 306 311 317 320 319 320 319 321 321 322 322 323 325 325 325 325
250 249 251 249 246 244 242 242 242 242 236 235 239 244 247 251 254 259 263 266 271 277 283 286 289 294 299 304 307 311 314 316 319 319 318 319 321 323 324 324 324 325 324
249 251 253 250 246 243 241 242 241 238 233 237 241 244 247 251 255 257 263 268 272 276 281 283 286 292 297 302 306 309 312 315 319 317 318 319 320 320 320 320 319 320 320
250 251 251 249 245 241 240 239 237 234 233 239 243 247 250 255 258 258 263 268 273 278 281 283 285 290 295 298 302 306 310 313 315 315 317 318 317 316 316 317 317 318 318
250 249 249 249 246 243 241 241 239 237 237 241 246 249 252 254 256 259 265 270 272 278 284 286 287 290 294 295 299 303 306 310 313 315 316 317 317 315 314 315 316 316 315
251 249 249 248 248 246 244 245 244 241 240 244 249 251 254 257 257 261 266 269 272 277 281 285 287 289 290 294 298 300 302 305 308 311 313 315 315 315 314 313 314 314 315
250 250 250 250 249 248 246 246 246 245 245 249 254 256 258 259 259 262 265 269 272 275 279 282 285 288 289 292 295 297 300 303 305 308 309 312 314 315 314 312 312 313 314
249 250 250 250 250 249 247 247 248 248 248 253 256 259 260 260 261 264 266 268 271 275 278 280 283 287 288 291 293 295 298 300 303 306 308 309 312 312 311 311 312 313 315
Height
5850 5850 5850 5851 5851 5851 5851 5852 5852 5852 5852 5853 5853 5853 5854 5854 5854 5854 5854 5854 5854 5854 5854 5854 5853 5853 5853 5853 5853 5853 5852 5852 5851 5851 5850 5850 5849 5849 5848 5847 5846 5846 5845
5848 5848 5848 5849 5849 5849 5850 5850 5850 5850 5851 5851 5851 5851 5852 5852 5852 5852 5853 5852 5852 5852 5852 5852 5852 5851 5851 5851 5851 5850 5850 5850 5849 5848 5847 5847 5846 5846 5845 5844 5843 5842 5841
5846 5846 5847 5847 5847 5848 5848 5848 5848 5848 5849 5849 5849 5850 5850 5850 5851 5851 5851 5851 5850 5850 5850 5850 5850 5850 5849 5849 5849 5848 5848 5848 5847 5846 5845 5844 5843 5842 5841 5840 5840 5839 5838
5844 5845 5845 5846 5846 5846 5846 5846 5846 5847 5847 5847 5848 5848 5848 5849 5849 5849 5849 5849 5849 5849 5849 5849 5848 5848 5848 5847 5847 5847 5846 5845 5845 5844 5843 5842 5841 5840 5838 5837 5836 5835 5834
5843 5843 5843 5844 5844 5845 5845 5845 5845 5845 5845 5846 5846 5846 5847 5847 5848 5848 5848 5848 5847 5847 5847 5847 5847 5847 5846 5846 5845 5845 5844 5843 5842 5842 5841 5839 5838 5837 5836 5834 5833 5832 5831
5842 5842 5842 5842 5842 5843 5843 5843 5843 5843 5844 5844 5845 5845 5846 5846 5846 5846 5846 5846 5846 5846 5846 5846 5846 5846 5845 5844 5844 5843 5843 5842 5840 5840 5839 5838 5836 5835 5833 5832 5830 5829 5828
5841 5841 5841 5841 5841 5841 5842 5842 5842 5842 5842 5843 5844 5844 5844 5845 5845 5845 5845 5845 5845 5845 5845 5844 5844 5844 5844 5843 5843 5842 5841 5840 5839 5838 5837 5836 5834 5833 5831 5829 5828 5827 5826
5839 5840 5840 5840 5840 5840 5840 5841 5841 5841 5841 5842 5842 5843 5843 5844 5844 5844 5844 5844 5844 5844 5843 5843 5843 5843 5843 5842 5841 5841 5840 5839 5838 5837 5836 5835 5833 5831 5830 5828 5826 5825 5823
5838 5838 5838 5839 5839 5839 5839 5839 5840 5840 5840 5841 5841 5842 5842 5842 5843 5843 5843 5843 5843 5843 5843 5842 5842 5842 5841 5841 5840 5840 5839 5838 5837 5835 5834 5833 5832 5830 5828 5826 5824 5822 5821
5836 5837 5837 5837 5837 5837 5838 5838 5838 5839 5839 5840 5840 5841 5841 5842 5842 5842 5842 5842 5842 5842 5842 5841 5841 5841 5840 5840 5839 5838 5837 5836 5835 5834 5833 5832 5830 5828 5827 5825 5822 5820 5818
5835 5835 5835 5835 5835 5836 5836 5837 5837 5838 5838 5839 5839 5839 5840 5840 5841 5841 5841 5841 5841 5841 5840 5840 5840 5839 5839 5838 5837 5837 5836 5835 5834 5833 5831 5830 5828 5827 5825 5823 5820 5817 5815
5833 5833 5833 5833 5834 5834 5835 5835 5836 5836 5837 5837 5838 5838 5839 5839 5839 5840 5840 5840 5840 5840 5839 5839 5839 5838 5838 5837 5836 5836 5835 5834 5833 5831 5830 5828 5827 5825 5823 5821 5818 5815 5812
5831 5831 5831 5832 5832 5832 5833 5833 5834 5835 5835 5836 5836 5837 5837 5838 5838 5838 5838 5839 5839 5839 5838 5838 5838 5837 5837 5836 5835 5834 5833 5832 5831 5830 5828 5827 5825 5823 5822 5820 5817 5813 5811
5829 5830 5830 5830 5831 5831 5831 5832 5833 5833 5834 5834 5835 5835 5836 5836 5837 5837 5837 5838 5837 5837 5837 5837 5836 5836 5835 5835 5834 5833 5832 5831 5830 5828 5827 5825 5824 5822 5820 5818 5816 5813 5811
5827 5827 5828 5828 5829 5829 5830 5830 5831 5831 5832 5833 5833 5834 5834 5835 5835 5836 5836 5836 5836 5836 5836 5835 5835 5835 5834 5833 5833 5832 5831 5829 5828 5827 5825 5824 5822 5820 5818 5816 5814 5812 5810
5825 5825 5826 5826 5827 5827 5828 5829 5829 5830 5831 5831 5832 5832 5833 5833 5833 5834 5834 5834 5835 5835 5834 5834 5834 5833 5833 5832 5831 5830 5829 5828 5827 5825 5823 5822 5820 5819 5817 5814 5813 5811 5809
5823 5824 5824 5824 5825 5826 5826 5827 5828 5828 5829 5829 5830 5830 5831 5832 5832 5832 5833 5833 5833 5833 5833 5833 5832 5832 5831 5831 5829 5828 5827 5826 5825 5823 5822 5820 5819 5817 5815 5813 5811 5809 5807
5821 5822 5822 5822 5823 5823 5824 5825 5826 5826 5827 5828 5828 5829 5829 5830 5830 5831 5831 5831 5831 5831 5831 5831 5831 5830 5830 5829 5828 5827 5826 5825 5823 5821 5820 5818 5817 5815 5813 5811 5808 5807 5805
5819 5819 5820 5820 5821 5821 5822 5823 5824 5824 5825 5826 5826 5827 5828 5828 5829 5829 5829 5829 5829 5829 5829 5829 5829 5828 5828 5827 5826 5825 5824 5822 5821 5819 5818 5816 5814 5812 5810 5808 5806 5804 5802
5816 5817 5817 5818 5818 5819 5820 5821 5821 5822 5823 5824 5825 5825 5826 5826 5827 5827 5827 5828 5828 5828 5827 5827 5827 5826 5825 5825 5824 5823 5822 5820 5819 5817 5815 5813 5811 5810 5808 5805 5803 5801 5799
5814 5814 5815 5815 5816 5817 5817 5818 5819 5820 5820 5821 5822 5823 5824 5824 5825 5825 5825 5825 5825 5825 5825 5825 5824 5824 5823 5822 5821 5820 5819 5818 5816 5814 5813 5811 5809 5807 5805 5803 5800 5798 5796
5811 5811 5812 5812 5813 5814 5815 5816 5817 5817 5818 5819 5820 5820 5821 5822 5822 5822 5822 5823 5823 5823 5822 5822 5821 5821 5820 5819 5818 5817 5816 5815 5813 5812 5810 5808 5806 5804 5801 5799 5797 5795 5792
5808 5808 5809 5810 5810 5811 5812 5813 5814 5815 5816 5816 5817 5818 5818 5819 5819 5819 5820 5820 5820 5820 5819 5819 5819 5818 5817 5816 5815 5814 5813 5812 5810 5808 5806 5804 5802 5800 5798 5795 5793 5790 5788
5804 5805 5806 5806 5807 5808 5809 5810 5811 5812 5813 5813 5814 5815 5815 5816 5816 5816 5817 5817 5817 5817 5816 5816 5815 5815 5814 5813 5812 5811 5810 5808 5807 5805 5803 5801 5798 5796 5793 5791 5788 5786 5783
5800 5801 5802 5803 5804 5804 5805 5806 5807 5808 5809 5810 5811 5811 5812 5812 5813 5813 5813 5813 5813 5813 5813 5812 5812 5811 5810 5809 5808 5807 5806 5804 5803 5801 5799 5796 5794 5791 5789 5786 5783 5780 5778
5796 5797 5798 5799 5800 5801 5801 5802 5804 5805 5806 5806 5807 5808 5808 5808 5809 5809 5809 5809 5809 5809 5809 5808 5808 5807 5806 5805 5804 5803 5801 5800 5798 5796 5794 5792 5789 5786 5784 5781 5778 5775 5772